Vertical_Velocity
3 4 1 -0 2 2 2 2 2 6 4 -1 1 1 -1 0 2 4 3 2 4 3 3 -1 -4 -4 6 -0 4 6 1 4 4 -2 -4 -6 0 5 -10 -5 2 -6 -5
3 -2 -2 0 1 0 1 1 0 2 2 4 2 3 3 -0 -0 -1 -3 0 -2 -1 -1 6 3 -4 -3 9 3 -1 -1 3 9 -8 -1 -1 -0 -4 -1 2 -3 8 2
-1 0 0 -0 -2 -3 -2 -2 -1 -0 1 1 2 1 -0 0 1 -1 -0 2 1 0 2 1 -4 3 2 1 3 2 5 9 4 8 -7 3 -3 1 -2 2 -2 3 -2
2 4 -1 -4 -2 -0 -1 -1 -1 -1 0 0 -1 -0 0 1 3 3 3 0 -1 -0 2 2 2 1 2 3 1 -2 5 1 5 -0 -6 -9 12 -11 3 -4 -13 -5 -3
1 1 -0 2 -0 -0 -3 -2 1 1 -1 1 -0 -1 -1 -2 -1 1 1 -1 0 0 -1 1 -0 -1 3 2 1 4 4 1 4 1 -5 1 -13 1 -12 -2 -6 -6 -3
-0 3 4 5 2 1 1 0 1 -1 -3 -1 -0 -1 -1 1 0 1 2 2 1 -3 -5 -4 -3 -1 1 -1 -1 2 5 -4 -2 8 -0 -2 -13 -5 3 -2 3 3 -7
-1 -4 3 5 4 5 4 -0 -2 -0 2 -2 -2 -0 -0 -0 2 3 6 0 0 -3 -1 1 -2 -10 3 0 2 5 2 6 8 14 2 -7 1 -12 10 10 -1 -0 -4
-2 0 -2 4 6 4 1 4 3 2 1 1 -1 -4 -3 -3 -1 2 4 4 2 -2 -1 1 3 0 0 -2 2 3 -4 4 2 4 12 9 12 10 3 -1 2 1 -5
3 -1 -3 -0 2 2 2 2 3 4 8 17 11 2 3 17 -1 3 -1 4 1 -6 -3 1 3 -1 -2 1 6 -1 -0 -2 -6 6 6 4 3 4 9 18 7 20 9
3 3 2 -1 -1 0 1 1 -0 1 1 4 1 -1 -1 1 4 4 2 4 0 7 13 20 19 -2 -3 1 1 7 14 23 13 -3 1 2 4 7 -1 6 4 13 10
3 3 1 -2 -1 -1 -2 1 0 -1 1 0 1 5 7 6 4 3 -0 7 9 10 7 6 2 3 6 1 15 26 10 -11 -8 3 11 15 4 5 -3 -8 -0 5 4
2 1 3 3 2 -2 -0 -3 -0 -1 -1 0 -0 -0 1 0 1 1 2 2 1 1 2 1 -1 -5 -2 -6 3 -3 1 18 8 14 8 10 5 1 4 -1 2 -7 13
2 0 0 -3 -3 1 2 1 -1 -2 1 -2 -0 -1 -1 -1 -2 -2 -1 -1 0 1 1 2 6 -5 -6 2 -4 -10 7 2 12 13 10 1 -2 14 -3 -2 -3 11 5
-3 -2 -1 3 1 -1 0 -2 -2 -1 -1 -1 -0 -1 -0 0 -0 -1 -1 -1 -1 0 1 0 -1 -0 -5 3 2 5 -5 -3 -1 -4 -2 6 5 4 2 4 -2 -3 -1
2 -0 -2 -3 -0 -2 -2 -2 -1 -2 -0 -1 -0 1 1 -2 -3 -1 -0 0 1 -0 0 1 2 2 -3 -0 -0 1 -5 -2 -1 -1 -2 -7 3 -1 4 0 -2 -4 -7
-1 0 1 1 2 -1 -1 -2 -2 0 1 1 1 2 -1 -1 1 0 -1 -1 0 3 3 0 -1 -0 -1 -1 -2 -3 -1 1 -1 -1 -2 -3 -3 -8 -10 2 -1 -0 1
1 -1 -1 -1 -2 -1 1 -0 -3 -0 -1 -5 -2 -2 -1 -1 1 -2 -1 -0 -4 3 -5 -2 -1 3 1 0 2 3 0 2 1 -2 -7 -4 -2 -4 -3 -2 -5 3 -2
1 -2 -4 -1 1 2 1 -0 -1 1 1 -0 1 2 0 -1 -1 2 0 4 -2 -0 -2 -4 -4 -0 -0 1 0 -1 -2 -3 -3 -3 3 2 -1 -2 0 -0 1 -1 0
-2 1 2 2 2 0 0 0 -1 -1 -2 -3 -1 0 -2 0 -0 -3 -3 -6 -4 -4 -2 -2 -3 -2 -1 1 1 2 2 -1 -2 -1 -2 -2 -2 -1 -2 -2 1 1 0
-0 1 1 -0 -1 -0 1 1 0 1 1 1 0 -3 -1 2 2 1 1 -2 -6 -6 0 -2 -2 -1 -1 1 -0 -2 -0 1 1 -0 -0 -1 0 -1 -4 -4 -5 -3 -3
1 1 3 1 2 2 1 1 1 2 1 1 -0 1 -0 1 -2 -1 -1 1 1 -1 -3 -5 -4 -2 -3 -2 -2 -1 -1 0 -0 -1 -2 -3 -1 -2 -1 -1 -2 -1 -0
1 2 1 1 1 1 0 1 1 1 1 1 0 1 1 -0 1 2 1 -2 -3 1 -1 -2 -0 1 -1 -2 -2 -1 -2 -0 -1 -1 -1 -0 -1 -1 -0 -2 -2 1 -0
2 1 0 1 1 1 1 1 -0 -0 -0 -1 -0 -1 -0 0 1 -0 0 0 1 0 0 0 -0 0 2 2 -1 -1 1 -1 -1 -1 2 1 1 -0 -1 1 1 -1 -0
-1 0 1 0 1 1 1 0 1 -0 1 0 0 0 -0 1 -0 -0 -1 -1 -0 0 0 -0 0 0 -0 -0 1 0 1 0 -0 -0 -1 -1 -0 -0 -0 -0 1 0 0
0 -1 1 1 1 1 -0 1 0 -1 -0 0 -1 1 0 2 1 -0 -0 -0 -0 -0 -1 -1 -1 -1 -1 -1 -1 -1 -1 -1 -1 -0 -1 -0 1 1 0 1 1 -0 -1
2 1 1 1 0 -0 0 0 -0 -0 -0 0 1 -0 0 0 -0 0 0 0 0 0 0 -0 -1 -1 -1 -1 -1 -0 -0 1 1 1 0 -0 0 -0 -0 -0 -1 -1 -1
Height
1408 1414 1418 1422 1426 1429 1433 1437 1440 1443 1446 1449 1453 1456 1460 1464 1468 1471 1476 1481 1484 1488 1492 1496 1499 1504 1509 1512 1515 1517 1518 1521 1520 1520 1522 1524 1524 1525 1526 1527 1527 1526 1526
1408 1412 1416 1420 1424 1427 1431 1435 1439 1442 1445 1449 1452 1456 1459 1462 1466 1469 1473 1477 1481 1484 1487 1490 1494 1498 1500 1504 1506 1507 1509 1511 1513 1511 1514 1514 1514 1516 1516 1516 1516 1515 1514
1408 1411 1414 1417 1421 1425 1429 1433 1437 1440 1443 1446 1449 1452 1456 1459 1462 1466 1470 1474 1476 1479 1482 1484 1487 1490 1492 1495 1498 1500 1502 1504 1504 1505 1503 1504 1505 1505 1505 1505 1504 1503 1501
1407 1410 1413 1416 1419 1422 1426 1430 1433 1436 1440 1443 1446 1449 1452 1455 1458 1461 1464 1467 1470 1472 1476 1478 1481 1483 1486 1489 1491 1493 1495 1496 1496 1495 1495 1495 1495 1495 1494 1493 1490 1490 1488
1405 1408 1411 1413 1415 1419 1422 1425 1429 1432 1435 1439 1441 1444 1446 1449 1452 1455 1458 1461 1463 1466 1469 1472 1474 1476 1478 1482 1483 1483 1485 1485 1485 1484 1483 1483 1482 1482 1479 1480 1475 1477 1473
1402 1406 1408 1410 1412 1414 1417 1421 1424 1427 1430 1433 1435 1437 1439 1441 1444 1448 1451 1453 1455 1458 1460 1462 1464 1467 1468 1471 1472 1473 1474 1473 1472 1472 1470 1468 1467 1467 1467 1466 1464 1462 1458
1398 1402 1406 1407 1409 1411 1413 1416 1419 1422 1424 1426 1429 1431 1432 1435 1437 1439 1443 1444 1446 1447 1449 1450 1451 1452 1455 1456 1457 1459 1460 1460 1459 1460 1456 1455 1455 1457 1458 1456 1454 1450 1446
1400 1401 1403 1405 1406 1407 1408 1411 1413 1415 1416 1418 1421 1424 1426 1427 1429 1431 1432 1433 1435 1436 1438 1438 1439 1440 1441 1443 1444 1443 1443 1444 1444 1444 1441 1441 1442 1442 1441 1441 1441 1440 1435
1399 1401 1402 1404 1404 1405 1405 1406 1407 1409 1411 1413 1414 1416 1417 1420 1417 1418 1423 1424 1425 1425 1426 1427 1427 1426 1428 1428 1427 1427 1427 1429 1427 1427 1427 1425 1423 1424 1425 1427 1424 1425 1422
1401 1401 1402 1403 1403 1403 1403 1404 1404 1405 1406 1407 1408 1409 1410 1412 1411 1411 1412 1414 1414 1414 1415 1418 1418 1414 1416 1415 1414 1414 1412 1415 1414 1411 1412 1409 1406 1406 1404 1409 1409 1410 1409
1405 1404 1403 1404 1405 1404 1403 1403 1402 1403 1403 1402 1403 1403 1403 1403 1403 1404 1405 1407 1407 1407 1406 1406 1404 1400 1401 1404 1404 1401 1397 1397 1400 1402 1401 1396 1396 1394 1393 1394 1398 1397 1397
1407 1407 1406 1404 1404 1405 1404 1403 1402 1402 1402 1401 1400 1400 1400 1400 1399 1399 1399 1399 1398 1398 1398 1397 1395 1394 1392 1392 1391 1389 1392 1393 1391 1390 1392 1391 1390 1391 1391 1392 1393 1396 1397
1409 1408 1406 1406 1408 1407 1405 1403 1402 1403 1401 1400 1400 1399 1398 1398 1398 1397 1396 1394 1393 1392 1392 1390 1390 1388 1388 1387 1384 1391 1387 1389 1391 1393 1393 1394 1396 1396 1392 1397 1401 1400 1395
1412 1411 1410 1409 1407 1407 1405 1404 1404 1404 1402 1401 1400 1399 1399 1398 1398 1397 1396 1395 1395 1394 1393 1393 1393 1392 1387 1393 1388 1392 1386 1395 1398 1397 1403 1403 1403 1402 1400 1401 1402 1402 1402
1413 1413 1412 1411 1410 1409 1407 1404 1403 1403 1403 1403 1402 1401 1399 1398 1399 1400 1400 1399 1399 1398 1397 1397 1397 1394 1395 1396 1396 1396 1398 1403 1402 1406 1407 1407 1409 1407 1408 1404 1405 1406 1402
1415 1415 1414 1414 1412 1412 1410 1408 1407 1406 1405 1405 1405 1404 1403 1403 1404 1404 1404 1404 1403 1404 1403 1401 1401 1401 1402 1402 1403 1404 1406 1405 1405 1406 1406 1408 1407 1408 1411 1410 1409 1410 1408
1415 1415 1415 1415 1415 1416 1414 1411 1410 1411 1410 1410 1410 1409 1409 1409 1408 1408 1408 1407 1407 1409 1407 1408 1409 1409 1408 1408 1408 1408 1408 1407 1408 1407 1407 1408 1409 1411 1412 1411 1414 1412 1410
1416 1417 1418 1419 1419 1417 1416 1414 1415 1416 1415 1414 1414 1414 1413 1412 1412 1411 1411 1411 1410 1411 1412 1414 1415 1416 1415 1414 1411 1410 1409 1409 1409 1409 1409 1408 1409 1411 1412 1413 1412 1414 1413
1422 1423 1422 1421 1420 1420 1419 1419 1418 1418 1418 1416 1417 1417 1416 1416 1415 1414 1415 1415 1415 1415 1417 1418 1419 1419 1418 1418 1415 1414 1412 1411 1411 1411 1411 1412 1411 1412 1413 1415 1415 1414 1412
1425 1424 1423 1423 1422 1423 1422 1422 1421 1421 1421 1420 1418 1417 1418 1419 1418 1416 1416 1415 1416 1418 1419 1420 1420 1420 1420 1419 1418 1417 1416 1415 1413 1413 1413 1413 1413 1412 1413 1414 1415 1414 1413
1428 1427 1426 1425 1425 1425 1425 1425 1424 1424 1422 1421 1420 1420 1420 1420 1419 1419 1418 1418 1417 1418 1419 1422 1422 1421 1421 1420 1420 1419 1418 1417 1416 1415 1414 1414 1414 1414 1414 1414 1414 1414 1414
1431 1430 1428 1428 1428 1427 1427 1426 1426 1425 1424 1423 1421 1421 1421 1421 1421 1420 1420 1419 1420 1420 1421 1421 1422 1421 1420 1420 1420 1420 1419 1418 1417 1417 1416 1415 1415 1414 1415 1414 1416 1415 1413
1433 1431 1431 1430 1429 1429 1428 1427 1426 1426 1425 1424 1424 1423 1424 1423 1422 1422 1422 1422 1422 1421 1422 1422 1422 1422 1421 1420 1420 1420 1419 1418 1417 1417 1417 1416 1415 1414 1415 1415 1415 1414 1413
1434 1433 1432 1430 1430 1429 1429 1428 1427 1427 1426 1426 1425 1425 1425 1424 1423 1424 1424 1424 1424 1423 1423 1423 1423 1422 1421 1421 1420 1420 1419 1418 1417 1417 1416 1416 1415 1415 1415 1415 1414 1413 1411
1433 1433 1432 1431 1430 1430 1430 1429 1428 1428 1428 1427 1427 1426 1426 1425 1425 1425 1425 1424 1424 1424 1423 1423 1422 1422 1421 1420 1420 1419 1418 1417 1416 1416 1415 1415 1415 1415 1415 1414 1412 1411 1410
1434 1433 1432 1431 1431 1431 1430 1430 1429 1429 1429 1428 1427 1427 1427 1426 1426 1426 1425 1425 1424 1424 1423 1422 1421 1420 1419 1419 1418 1417 1416 1416 1415 1414 1414 1413 1413 1413 1413 1412 1412 1411 1410